Location: Home
(42.5358°N, 72.7383°W)
Time: 01:33:23
(UTC-04:00)

DELTA 1 DEB - Pass Details

Date: 04 July 2022
Orbit: 600 x 774 km, 98.5° (Epoch: 16 August)

Event Time Altitude Azimuth Distance (km) Brightness Sun altitude
Exits shadow 23:50:33 19° 236° (SW) 1,742 ? -23.0°
Maximum altitude 23:52:21 23° 265° (W) 1,559 ? -23.1°
Drops below altitude 10° 23:56:15 10° 318° (NW) 2,241 ? -23.3°
Sets 23:58:57 0° 333° (NNW) 3,139 ? -23.4°
